Home > Weather > Brumunddal > Past weeks

Flag for Norway Past Weather in Brumunddal, Norway — Yesterday and Last 2 Weeks

Now
60 °F

Cool.


Feels Like: 60 °F
Forecast: 55 / 73 °F
Wind: 1 mph from Northeast

Location: Lillehammer-Saetherengen

Current Time: Jul 24, 2016 at 6:55:39 AM

Latest Report: Jul 24, 2016 at 6:00 AM


Visibility: N/A

Pressure: 30.11 "Hg

Humidity: 91%

Dew Point: 58 °F

Location of BrumunddalLocation

Past Weather in Brumunddal — Graph

°F

Brumunddal Temperature Yesterday

Maximum temperature yesterday: 71 °F (at 8:00 PM)
Minimum temperature yesterday: 58 °F (at 4:00 AM)
Average temperature yesterday: 65 °F

High & Low Weather Summary for the Past Weeks

 TemperatureHumidityPressure
High77 °F (Jul 20, 5:00 PM)96% (Jul 11, 5:00 AM)30.11 "Hg (Jul 11, 5:00 AM)
Low49 °F (Jul 19, 6:00 AM)34% (Jul 16, 3:00 PM)29.35 "Hg (Jul 11, 7:00 PM)
Average61 °F72%29.81 "Hg
* Reported Jul 9 5:00 AM — Jul 24 5:00 AM, Brumunddal, Weather by CustomWeather, © 2016

Note: Actual official high and low records may vary slightly from our data, if they occured in-between our weather recording intervals... More about our weather records

Advertising

Brumunddal Weather History for the Previous 24 Hours

Scroll right to see more
 ConditionsComfort  
Time TempWeatherWind HumidityBarometerVisibility
5:00 AM
Sun, Jul 24
60 °FCool.No wind91%30.11 "HgN/A
4:00 AM61 °FCool.1 mph90%30.11 "HgN/A
3:00 AM61 °FCool.No wind89%30.10 "HgN/A
2:00 AM62 °FCool.1 mph89%30.10 "HgN/A
1:00 AM63 °FMild.1 mph86%30.09 "HgN/A
12:00 AM64 °FMild.1 mph82%30.09 "HgN/A
11:00 PM
Sat, Jul 23
65 °FMild.1 mph81%30.09 "HgN/A
10:00 PM67 °FMild.1 mph76%30.08 "HgN/A
9:00 PM68 °FMild.2 mph73%30.07 "HgN/A
8:00 PM71 °FMild.2 mph69%30.06 "HgN/A
5:00 PM69 °FMild.3 mph66%30.08 "HgN/A
4:00 PM69 °FMild.3 mph65%30.09 "HgN/A
3:00 PM69 °FMild.3 mph68%30.09 "HgN/A
2:00 PM67 °FMild.1 mph82%30.10 "HgN/A
1:00 PM67 °FMild.2 mph83%30.10 "HgN/A
12:00 PM67 °FMild.2 mph77%30.10 "HgN/A
11:00 AM67 °FMild.2 mph77%30.09 "HgN/A
10:00 AM65 °FMild.2 mph80%30.10 "HgN/A
9:00 AM63 °FMild.1 mph80%30.10 "HgN/A
8:00 AM63 °FMild.No wind86%30.10 "HgN/A
7:00 AM60 °FCool.1 mph89%30.10 "HgN/A
6:00 AM59 °FCool.1 mph91%30.10 "HgN/A
Weather by CustomWeather, © 2016

See weather overviewHow to use our weather pages